Weather History for Nellis AFB, NV

Change the Weather History Date:

Tuesday, February 5, 2013

  Actual Average Record
Temperature  
Mean Temperature 52 °F -  
Max Temperature 67 °F 58 °F 73 °F (2007)
Min Temperature 38 °F 36 °F 32 °F (2008)
Degree Days  
Heating Degree Days 12    
Growing Degree Days 2 (Base 50)    
Moisture  
Dew Point 27 °F    
Average Humidity 38    
Maximum Humidity 62    
Minimum Humidity 20    
Precipitation  
Precipitation 0.00 in - - ()
Sea Level Pressure  
Sea Level Pressure 29.95 in    
Wind  
Wind Speed 4 mph (ENE)    
Max Wind Speed 12 mph    
Max Gust Speed -    
Visibility 10 miles    
Events      
Averages and records for this station are not official NWS values.
T = Trace of Precipitation, MM = Missing Value Source: NWS Daily Summary

Daily Weather History Graph

Daily Weather History Graph

Search for Another Location

Airport:

Trip Planner

Search our weather history database for the weather conditions in past years. The results will help you decide how hot, cold, wet, or windy it might be!

Date:

Astronomy

Feb. 05, 2013 Rise Set
Actual Time 6:37 AM PST 5:11 PM PST
Civil Twilight 6:10 AM PST 5:38 PM PST
Nautical Twilight 5:40 AM PST 6:08 PM PST
Astronomical Twilight 5:10 AM PST 6:38 PM PST
Moon 2:20 AM PST (2/5) 12:36 PM PST (2/5)
Length of Visible Light 11h 27m
Length of Day
10h 33m
Waning Crescent, 25% of the Moon is Illuminated
Feb 5
Waning Crescent
Feb 9
New
Feb 17
First Quarter
Feb 25
Full
Mar 4
Last Quarter

Hourly Weather History & Observations

Time (PST) Temp. Windchill Dew Point Humidity Pressure Visibility Wind Dir Wind Speed Gust Speed Precip Events Conditions
12:58 AM 46.0 °F 44.8 °F 28.0 °F 50% 30.02 in 10.0 mi East 3.5 mph - N/A   Clear
1:58 AM 44.1 °F - 28.0 °F 53% 30.01 in 10.0 mi West 2.3 mph - N/A   Clear
2:58 AM 43.7 °F - 25.2 °F 48% 30.01 in 10.0 mi Calm Calm - N/A   Clear
3:58 AM 40.8 °F - 27.0 °F 58% 30.02 in 10.0 mi NE 2.3 mph - N/A   Clear
4:58 AM 40.8 °F - 27.1 °F 58% 30.03 in 10.0 mi Calm Calm - N/A   Clear
5:58 AM 41.2 °F - 25.5 °F 54% 30.04 in 10.0 mi Calm Calm - N/A   Clear
6:58 AM 38.7 °F - 26.6 °F 62% 30.05 in 10.0 mi Calm Calm - N/A   Clear
7:58 AM 41.9 °F - 28.0 °F 58% 30.06 in 10.0 mi NE 1.2 mph - N/A   Clear
8:58 AM 47.1 °F - 29.5 °F 50% 30.06 in 10.0 mi Calm Calm - N/A   Clear
9:58 AM 53.2 °F - 27.9 °F 38% 30.05 in 10.0 mi Calm Calm - N/A   Clear
10:58 AM 60.8 °F - 24.4 °F 25% 30.01 in 10.0 mi ENE 8.1 mph - N/A   Clear
11:58 AM 63.7 °F - 24.4 °F 22% 29.99 in 10.0 mi East 6.9 mph - N/A   Clear
12:58 PM 65.7 °F - 25.0 °F 21% 29.94 in 10.0 mi East 5.8 mph - N/A   Clear
1:58 PM 66.4 °F - 24.8 °F 21% 29.91 in 10.0 mi East 5.8 mph - N/A   Clear
2:58 PM 67.5 °F - 24.4 °F 20% 29.89 in 10.0 mi East 8.1 mph - N/A   Clear
3:58 PM 66.9 °F - 26.2 °F 22% 29.88 in 10.0 mi ENE 10.4 mph - N/A   Clear
4:58 PM 64.4 °F - 26.4 °F 24% 29.87 in 10.0 mi ENE 6.9 mph - N/A   Clear
5:58 PM 60.6 °F - 27.5 °F 28% 29.86 in 10.0 mi ENE 4.6 mph - N/A   Clear
6:58 PM 59.5 °F - 28.0 °F 30% 29.87 in 10.0 mi ENE 5.8 mph - N/A   Scattered Clouds
7:58 PM 58.6 °F - 27.7 °F 31% 29.86 in 10.0 mi NE 8.1 mph - N/A   Overcast
8:58 PM 57.4 °F - 28.2 °F 33% 29.86 in 10.0 mi NNE 8.1 mph - N/A   Scattered Clouds
9:58 PM 57.6 °F - 28.9 °F 34% 29.84 in 10.0 mi NE 11.5 mph - N/A   Clear
10:58 PM 55.2 °F - 30.2 °F 38% 29.84 in 10.0 mi NE 8.1 mph - N/A   Clear
11:58 PM 55.2 °F - 30.2 °F 38% 29.83 in 10.0 mi ENE 8.1 mph - N/A   Clear